Location: Unspecified
(41.9031°N, 12.4386°E)
Time: 07:06:48
(UTC+01:00)

ISS - Pass Details

Date: 09 December 2019
Orbit: 411 x 421 km, 51.6° (Epoch: 15 December)

Event Time Altitude Azimuth Distance (km) Brightness Sun altitude
Rises 17:36:46 0° 306° (NW) 2,359 0.5 -10.5°
Reaches altitude 10° 17:38:53 10° 310° (NW) 1,495 -0.6 -10.9°
Maximum altitude 17:42:12 60° 31° (NNE) 482 -3.7 -11.4°
Enters shadow 17:45:10 12° 112° (ESE) 1,353 -1.6 -12.0°
